Location: Hamilton
(37.7830°S, 175.2830°E)
Time: 15:15:55
(UTC+13:00)

Cosmos 1271 Rocket - Pass Details

Date: 24 January 2019
Orbit: 498 x 547 km, 81.2° (Epoch: 19 February)

Event Time Altitude Azimuth Distance (km) Brightness Sun altitude
Rises 20:58:56 0° 184° (S) 2,739 6.9 -4.5°
Reaches altitude 10° 21:01:09 10° 180° (S) 1,843 5.9 -4.8°
Maximum altitude 21:05:09 55° 101° (E) 669 3.0 -5.5°
Drops below altitude 10° 21:09:07 10° 22° (NNE) 1,826 5.0 -6.2°
Enters shadow 21:11:12 - 17° (NNE) 2,669 5.9 -6.6°
